Regional Weather Roundup
Issued by NWS

Home | Current Version | Previous Version | Text Only | Print | Product List | Glossary Off
Versions: 1 2 3 4 5 6 7 8 9 10 11 12 13 14 15 16 17 18 19 20 21 22 23 24 25 26 27 28 29 30 31 32 33 34 35 36 37 38 39 40 41 42 43 44 45 46 47 48 49 50

000
ASUS43 KMKX 221900
RWRWI

WISCONSIN REGIONAL WEATHER ROUNDUP
NATIONAL WEATHER SERVICE MILWAUKEE/SULLIVAN WI
200 PM CDT TUE APR 22 2014

NOTE: "FAIR" INDICATES FEW OR NO CLOUDS BELOW 12,000 FEET WITH NO
SIGNIFICANT WEATHER AND/OR OBSTRUCTIONS TO VISIBILITY.

WIZ001-002-006>008-014>016-023>028-222000-
NORTHWEST WISCONSIN

CITY           SKY/WX    TMP DP  RH WIND       PRES   REMARKS
SUPERIOR ARPT  MOSUNNY   50  26  39 NW10      30.10S
ASHLAND        SUNNY     47  27  45 N8        30.09F
HAYWARD        SUNNY     50  22  33 NW8       30.08S
SIREN          MOSUNNY   50  20  31 N14G20    30.10S
RICE LAKE      SUNNY     50  21  32 N14       30.09S
LADYSMITH      SUNNY     49  25  38 N17G23    30.07S
EAU CLAIRE     NOT AVBL
MENOMONIE      PTCLDY    53  22  29 NW18G26   30.07F
NEW RICHMOND   MOSUNNY   52  28  40 N15G24    30.09F
OSCEOLA        MOSUNNY   53  29  40 N14       30.13S
$$

WIZ003>005-009-010-017-018-222000-
NORTH CENTRAL WISCONSIN

CITY           SKY/WX    TMP DP  RH WIND       PRES   REMARKS
WOODRUFF       PTSUNNY   44  26  49 NW16      30.04R
RHINELANDER    CLOUDY    41  23  48 NW16      30.03S
EAGLE RIVER    CLOUDY    39  24  54 N17G23    30.02R WCI  30
LAND O LAKES   CLOUDY    38  26  61 NW14G24   30.03R WCI  30
PHILLIPS       MOSUNNY   44  23  43 N12G22    30.04R
TOMAHAWK       PTSUNNY   44  24  45 N9G24     30.04R
MEDFORD        SUNNY     47  26  43 N13G18    30.02S
MERRILL        MOSUNNY   46  25  43 N15G24    30.02S
$$

WIZ029-030-035-036-043>047-222000-
CENTRAL WISCONSIN

CITY           SKY/WX    TMP DP  RH WIND       PRES   REMARKS
WAUSAU         MOSUNNY   49  24  37 N14G22    30.00R
MOSINEE        MOSUNNY   48  28  46 NW18G24   30.01S
MARSHFIELD     MOSUNNY   51  29  42 NW18G24   30.00F
STEVENS POINT  MOSUNNY   48  23  37 NW13G21   30.00F
WAUPACA        SUNNY     54  23  30 NW14G28   29.99F
WAUTOMA        NOT AVBL
WISC RAPIDS    MOSUNNY   54  26  34 NW15G28   30.02S
CAMP DOUGLAS   NOT AVBL
$$

WIZ011>013-019>022-031-037>040-048>050-222000-
NORTHEAST WISCONSIN

CITY           SKY/WX    TMP DP  RH WIND       PRES   REMARKS
ANTIGO         MOSUNNY   42  28  56 N20G26    30.00S
STURGEON BAY   CLOUDY    45  27  49 NW17G24   29.97R
GREEN BAY      PTSUNNY   49  31  49 N15G26    29.99R
MANITOWOC      NOT AVBL
APPLETON       PTSUNNY   48  27  43 N21G28    29.99
CLINTONVILLE   MOSUNNY   48  25  40 NW20G26   29.99S
OSHKOSH        SUNNY     51  27  39 NW18G26   29.97S
$$

WIZ032>034-041-042-053>061-222000-
SOUTHWEST WISCONSIN

CITY           SKY/WX    TMP DP  RH WIND       PRES   REMARKS
LA CROSSE      SUNNY     58  26  29 NW16      30.04F
SPARTA         SUNNY     54  23  30 N16       30.04F
VIROQUA        FAIR      53  30  42 N15       30.03F
BOSCOBEL       SUNNY     58  24  27 NW13G21   30.03F
PRAIRIE DU CHI SUNNY     56  25  31 W13G25    30.04F
PLATTEVILLE    FAIR      56  27  33 NW16      30.03S
$$

WIZ056-057-062-063-064-067-068-222000-
SOUTH CENTRAL WISCONSIN

CITY           SKY/WX    TMP DP  RH WIND       PRES   REMARKS
BARABOO/DELLS  SUNNY     52  24  33 NW16G24   30.00F
LONE ROCK      NOT AVBL
WATERTOWN      SUNNY     53  33  45 NW10      29.98S
MADISON        MOSUNNY   56  26  31 NW15G21   29.99S
MIDDLETON      FAIR      56  24  28 N17G24    30.00S
MONROE         SUNNY     56  24  29 W13G23    29.99S
JANESVILLE     SUNNY     57  25  28 NW12G21   29.97F
$$

WIZ051-052-058>065-066-070>072-222000-
SOUTHEAST WISCONSIN

CITY           SKY/WX    TMP DP  RH WIND       PRES   REMARKS
MILWAUKEE      MOSUNNY   55  30  38 NW21G26   29.96S
WAUKESHA       MOSUNNY   52  30  43 NW12      29.97F
MILWAUKEE/TIMM SUNNY     54  28  37 NW18G25   29.96S
RACINE         MOSUNNY   52  32  46 NE13      29.97S
BURLINGTON     SUNNY     53  31  43 NW15G24   29.96F
KENOSHA        SUNNY     55  31  39 NW8G17    29.95F
FOND DU LAC    MOSUNNY   54  30  40 NW18G24   29.97S
SHEBOYGAN      PTSUNNY   51  29  42 NW18G25   29.97R
WEST BEND      PTSUNNY   50  28  43 NW15G22   29.96S
JUNEAU         SUNNY     51  23  33 NW13G23   29.98S
$$

LSZ147-162-222000-
LAKE SUPERIOR

STATION/POSITION TIME  TEMP    WIND        PRES    WAVE
                       AIR SEA DIR/SP/G            HT/PER
                 (UTC) (F)     (DEG/KT/KT) (MB)    (FT/S)
DEVILS ISLAND    1800   39     230/  6/  9 1019.9R
PORT WING        1800   42     290/  5/  6 1019.6S
SAXON HARBOR     1840             CALM     1019.3F
$$

LMZ867-665-643>646-222000-
LAKE MICHIGAN

STATION/POSITION TIME  TEMP    WIND        PRES    WAVE
                       AIR SEA DIR/SP/G            HT/PER
                 (UTC) (F)     (DEG/KT/KT) (MB)    (FT/S)
NORTHPORT PIER   1800   36     320/ 11/ 15 1013.9S
SISTER BAY       1809   40     350/ 13/ 16   N/A
KEWAUNEE LAKESHO 1800   46     320/ 15/ 21 1014.8R
SHEBOYGAN LAKESH 1800   49     330/ 17/ 19 1014.8R
PORT WASHINGTON  1800   51     310/ 11/ 17 1014.9
MILWAUKEE LAKESH 1800   50     320/ 11/ 16   N/A
KENOSHA   LAKESH 1800   43     100/  9/ 11   N/A
$$

TC  - TEMPERATURE IN CELSIUS
VSB - VISIBILITY IN STATUTE MILES
WCI - WIND CHILL INDEX
HX  - HEAT INDEX




USA.gov is the U.S. government's official web portal to all federal, state and local government web resources and services.